User: anonymous   Login
Location: Banksville Park
(38.5557°N, 75.1182°W)
Time: 05:01:11
(UTC+00:00)
Language:

IDEFIX/ARIANE 42P - Orbit

View from above orbital plane
View from above orbital plane
View from above satellite
View from above satellite

Ground track
Ground track

The orbit data is extracted from the following two-line orbital elements,

1 27422U 02021B   20337.11707275  .00000039  00000-0  31477-4 0  9995
2 27422  98.3755 291.4253 0013332  94.8126 265.4579 14.29300873969115
Epoch (UTC): 02 December 2020 02:48:35
Eccentricity: 0.0013332
inclination: 98.3755°
perigee height: 784 km
apogee height: 803 km
right ascension of ascending node: 291.4253°
argument of perigee: 94.8126°
revolutions per day: 14.29300873
mean anomaly at epoch: 265.4579°
orbit number at epoch: 96911

The dashed part of the orbit path shows where the satellite is in the earth's shadow,  

DLR